Home > Weather > Hefei > Past weeks

Flag for China Past Weather in Hefei, Anhui, China — Yesterday and Last 2 Weeks

Now
70 °F

Clear.


Feels Like: 70 °F
Forecast: 61 / 84 °F
Wind: 6 mph from Southeast

Location: Hefei Airport

Current Time: May 24, 2016 at 9:57:25 PM

Latest Report: May 24, 2016 at 9:00 PM


Visibility: 10 mi

Pressure: 29.77 "Hg

Humidity: 73%

Dew Point: 61 °F

Location of HefeiLocation

Past Weather in Hefei — Graph

°F

Hefei Temperature Yesterday

Maximum temperature yesterday: 72 °F (at 2:00 PM)
Minimum temperature yesterday: 59 °F (at 3:00 AM)
Average temperature yesterday: 65 °F

High & Low Weather Summary for the Past Weeks

 TemperatureHumidityPressure
High90 °F (May 12, 2:00 PM)100% (May 9, 11:00 PM)30.18 "Hg (May 9, 11:00 PM)
Low55 °F (May 11, 5:00 AM)26% (May 16, 5:00 PM)29.68 "Hg (May 12, 2:00 AM)
Average67 °F73%29.92 "Hg
* Reported May 9 8:00 PM — May 24 8:00 PM, Hefei, Weather by CustomWeather, © 2016

Note: Actual official high and low records may vary slightly from our data, if they occured in-between our weather recording intervals... More about our weather records

Advertising

Hefei Weather History for the Previous 24 Hours

Scroll right to see more
 ConditionsComfort  
Time TempWeatherWind HumidityBarometerVisibility
8:00 PM
Tue, May 24
72 °FClear.3 mph69%29.74 "Hg10 mi
7:00 PM73 °FSunny.3 mph65%29.74 "Hg10 mi
6:00 PM77 °FSunny.6 mph51%29.74 "Hg10 mi
5:00 PM79 °FSunny.6 mph45%29.74 "Hg10 mi
4:00 PM81 °FPassing clouds.8 mph45%29.74 "HgN/A
3:00 PM79 °FPassing clouds.6 mph45%29.74 "HgN/A
2:00 PM79 °FPassing clouds.8 mph42%29.77 "HgN/A
1:00 PM79 °FPassing clouds.8 mph42%29.80 "HgN/A
12:00 PM79 °FPassing clouds.8 mph45%29.80 "HgN/A
11:00 AM77 °FPassing clouds.8 mph47%29.83 "HgN/A
10:00 AM75 °FPassing clouds.8 mph57%29.86 "HgN/A
9:00 AM73 °FPassing clouds.8 mph61%29.86 "HgN/A
8:00 AM70 °FPassing clouds.6 mph78%29.86 "HgN/A
7:00 AM64 °FFog.3 mph94%29.86 "Hg2 mi
6:00 AM63 °FFog.3 mph100%29.83 "Hg1 mi
5:00 AM63 °FFog.3 mph94%29.83 "Hg1 mi
4:00 AM63 °FFog.3 mph94%29.83 "Hg2 mi
3:00 AM63 °FFog.3 mph94%29.83 "Hg2 mi
2:00 AM64 °FFog.3 mph94%29.86 "Hg3 mi
1:00 AM63 °FClear.No wind94%29.86 "Hg4 mi
12:00 AM64 °FClear.1 mph88%29.86 "Hg4 mi
11:00 PM
Mon, May 23
64 °FClear.3 mph94%29.89 "Hg4 mi
10:00 PM66 °FClear.3 mph83%29.89 "Hg10 mi
9:00 PM66 °FClear.No wind94%29.86 "Hg10 mi
Weather by CustomWeather, © 2016

See weather overviewHow to use our weather pages